Voltar ao catálogo

FENGYUN 1C DEB

AtivoSSO
NORAD 31513·DEBRIS·🇨🇳 China

Lançado May 10, 1999 de Taiyuan Satellite Launch Center

Loading…

Próximas Passagens (próximas 24 horas)

TLE

AtualizadoSource: Space-Track

Época: Sep 13, 2026, 02:39 UTC

1 31513U 99025BXC 26256.11047638  .00002902  00000-0  10278-2 0  9992
2 31513  98.8647   4.5473 0026587  46.2286 314.1092 14.35150055768017

Acompanhe FENGYUN 1C DEB em tempo real com AllMySat

Download on the App Store